Location: Betzi
(47.2343°N, 9.5260°E)
Time: 17:44:51
(UTC+00:00)

Cosmos 2084 Rocket - Pass Details

Date: 27 May 2022
Orbit: 497 x 678 km, 62.8° (Epoch: 06 July)

Event Time Altitude Azimuth Distance (km) Brightness Sun altitude
Exits shadow 00:19:39 35° 122° (ESE) 823 4.0 -20.2°
Drops below altitude 10° 00:23:07 10° 56° (NE) 1,704 6.5 -20.0°
Sets 00:25:23 0° 48° (NE) 2,592 7.8 -19.9°
